CAPE
0 0 0 0 0 0 0 0 0 0 0 0 0 15 958 1388 832 583 843 1816 1666 1059 1216 519 350 450 589 331 130 3 0 0 0 0 0 2 71 350 338 111 46 71 29 0 0 0 0 0 0
0 0 0 0 0 0 0 0 0 0 0 0 0 0 140 261 769 1187 1021 1908 1494 1039 970 746 485 446 344 420 247 20 0 0 0 0 0 67 220 271 386 222 38 0 0 0 0 0 0 0 0
0 0 0 0 0 0 0 0 0 0 0 0 0 0 36 1 0 529 757 1712 1762 1179 964 970 647 601 418 205 224 62 0 0 0 0 4 127 218 316 264 237 108 0 0 0 0 0 0 0 0
0 0 0 0 0 0 0 0 0 0 0 0 0 0 0 1 0 41 729 1831 2126 1349 1188 1173 1019 718 703 478 160 142 27 10 0 0 0 101 258 286 260 239 110 37 0 0 0 0 0 0 0
0 0 0 0 0 0 0 0 0 0 0 0 0 0 0 0 0 0 170 1299 2275 1710 1517 1077 927 678 781 638 369 154 71 89 0 0 0 124 190 82 132 111 86 23 0 0 0 0 0 0 0
0 0 0 0 0 0 0 0 0 0 0 0 0 0 0 0 0 0 0 74 1920 1936 1594 1263 704 373 550 911 554 302 162 203 41 1 5 105 123 34 0 24 28 0 0 0 0 0 0 0 0
0 0 0 0 0 0 0 0 0 0 0 0 0 0 0 0 0 0 0 0 1103 1701 1492 1257 946 463 339 746 851 667 300 185 152 71 33 74 46 1 0 1 1 0 0 0 0 0 0 0 0
0 0 0 0 0 0 0 0 0 0 0 0 0 0 0 0 0 0 0 0 40 1585 1372 1081 896 671 277 594 1016 811 605 280 179 164 94 38 21 0 0 0 0 0 0 0 0 0 0 0 0
0 0 0 0 0 0 0 0 0 0 0 0 0 0 0 0 0 0 0 0 0 1208 1325 1028 959 690 305 169 880 930 837 478 290 295 183 57 41 14 0 0 0 0 0 0 0 0 0 0 0
0 0 0 0 0 0 0 0 0 0 0 0 0 0 0 0 0 0 0 0 0 713 1637 1363 978 744 380 653 638 807 892 822 448 258 173 52 9 0 0 0 0 0 0 0 0 0 0 0 0
0 0 0 0 0 0 0 0 0 0 0 0 0 0 0 0 0 0 0 0 0 0 1095 1222 707 442 100 528 706 806 872 766 508 230 59 1 10 12 0 0 33 11 0 0 0 0 0 0 0
0 0 0 0 0 0 0 0 0 0 0 0 0 0 0 0 0 0 0 0 0 0 0 865 454 324 134 117 591 574 745 703 495 245 92 0 1 0 0 14 0 0 0 0 0 0 0 0 0
0 0 0 0 0 0 0 0 0 0 0 0 0 0 0 0 0 0 0 0 0 0 0 0 1067 220 176 46 491 457 555 550 427 191 207 2 0 12 0 38 0 0 0 0 0 0 0 0 102
0 0 0 0 0 0 0 0 0 0 0 0 0 0 0 0 0 0 0 0 0 0 0 0 151 936 260 151 468 388 428 352 278 170 169 76 0 25 10 99 80 0 0 0 0 0 0 162 288
0 0 0 0 0 0 0 0 0 0 0 0 0 0 0 0 0 0 0 0 0 0 0 0 3 1446 775 257 485 322 208 311 212 158 161 82 0 11 65 78 183 0 0 0 0 205 654 469 300
0 0 0 0 0 0 0 0 0 0 0 0 0 0 0 0 0 0 0 0 0 0 0 0 0 383 1110 620 633 246 146 97 118 73 121 62 0 36 190 125 31 0 0 3 354 679 538 189 203
0 0 0 0 0 0 0 0 0 0 0 0 0 0 0 0 0 0 0 0 0 0 0 0 0 0 411 1298 676 624 141 79 82 53 131 150 4 102 445 140 9 0 0 33 76 499 376 414 217
0 0 0 0 0 0 0 0 0 0 0 0 0 0 0 0 0 0 0 0 0 0 0 0 0 0 0 1058 1130 829 664 111 154 98 233 215 66 248 370 97 1 0 3 357 334 561 198 178 235
0 0 0 0 0 0 0 0 0 0 0 0 0 0 0 0 0 0 0 0 0 0 0 0 0 0 0 358 957 945 771 718 109 148 428 357 248 395 305 95 0 0 138 263 478 323 176 180 111
0 0 0 0 0 0 0 0 0 0 0 0 0 0 0 0 0 0 0 0 0 0 0 0 0 0 0 0 22 272 366 631 744 569 809 566 393 441 263 114 29 59 229 528 352 286 301 155 72
0 0 0 0 0 0 0 0 0 8 0 0 0 0 0 0 0 0 0 0 0 0 0 3 0 0 0 0 190 108 0 87 638 554 512 658 550 470 301 178 136 270 342 448 499 395 323 259 16
0 0 0 0 0 0 0 0 0 10 0 0 0 0 0 0 0 0 0 0 0 0 0 2 0 0 0 0 37 257 288 118 458 599 475 675 603 506 316 149 337 605 491 635 612 543 437 142 63
0 0 0 0 0 0 0 9 0 2 0 0 0 0 0 0 0 0 0 0 0 0 0 0 72 2 0 0 1 419 710 772 737 635 494 692 601 458 246 94 613 524 579 847 707 595 482 154 28
0 0 0 0 0 5 0 0 0 11 0 0 0 0 0 0 0 0 0 0 0 0 0 0 0 87 0 0 26 230 829 720 835 626 522 450 471 347 127 41 929 639 561 907 521 103 0 0 0
0 0 0 0 0 0 0 0 25 8 0 0 0 0 0 0 0 0 0 0 0 0 0 0 0 6 7 0 63 445 799 788 772 660 489 510 377 207 109 37 653 692 512 274 44 0 0 0 0
0 2 4 1 0 0 0 8 35 1 1 0 0 0 0 0 0 0 0 0 0 0 0 0 0 0 8 0 38 292 1008 1081 810 711 483 431 319 181 92 175 554 348 65 1 0 0 0 0 0
0 1 11 0 0 0 0 2 51 0 0 0 0 0 0 0 0 0 0 0 0 0 0 0 0 0 0 0 43 202 468 1016 845 685 542 452 330 148 87 215 218 26 0 0 0 0 0 0 0
10 1 11 3 0 0 0 0 1 2 0 0 0 0 0 0 0 0 0 0 0 0 23 47 0 0 0 14 181 391 506 600 887 628 520 537 330 209 159 78 21 0 0 0 0 0 0 0 0
2 1 12 12 0 0 0 0 27 12 0 0 0 0 0 0 0 1 0 1 0 0 26 12 40 14 45 39 247 906 931 668 857 437 491 565 294 241 62 6 0 0 0 0 0 0 0 0 0
0 0 2 0 0 1 0 0 29 18 0 0 0 0 0 0 1 1 0 0 1 0 101 408 85 23 277 386 593 937 1330 950 609 484 495 521 136 7 0 0 0 0 0 0 0 0 0 0 0
CIN
0 0 0 0 0 0 0 0 0 0 0 0 0 -46 -110 -60 -59 -87 -207 -188 -258 -349 -378 -485 -488 -454 -445 -498 -567 -347 0 0 0 0 0 -209 -485 -205 -185 -327 -394 -369 -410 0 0 0 0 0 0
0 0 0 0 0 0 0 0 0 0 0 0 0 0 -131 -165 -143 -166 -129 -208 -264 -343 -398 -433 -475 -447 -469 -459 -507 -639 0 0 0 0 0 -457 -318 -278 -168 -232 -426 0 0 0 0 0 0 0 0
0 0 0 0 0 0 0 0 0 0 0 0 0 0 -78 -22 0 -180 -148 -191 -224 -325 -378 -370 -417 -416 -449 -466 -464 -531 0 0 0 0 -144 -390 -314 -239 -271 -238 -362 0 0 0 0 0 0 0 0
0 0 0 0 0 0 0 0 0 0 0 0 0 0 0 -4 0 -86 -90 -145 -169 -323 -336 -351 -358 -387 -376 -413 -451 -481 -573 -574 0 0 0 -404 -297 -260 -258 -290 -373 -422 0 0 0 0 0 0 0
0 0 0 0 0 0 0 0 0 0 0 0 0 0 0 0 0 0 -175 -76 -114 -247 -305 -353 -361 -386 -354 -372 -409 -441 -489 -464 -90 0 0 -368 -311 -352 -302 -294 -308 -434 0 0 0 0 0 0 0
0 0 0 0 0 0 0 0 0 0 0 0 0 0 0 0 0 0 0 -61 -60 -181 -281 -261 -347 -418 -373 -290 -349 -391 -416 -391 -515 -94 -248 -365 -344 -400 0 -391 -362 0 0 0 0 0 0 0 0
0 0 0 0 0 0 0 0 0 0 0 0 0 0 0 0 0 0 0 0 -80 -138 -212 -265 -308 -381 -395 -299 -255 -284 -349 -381 -382 -439 -464 -379 -380 -25 0 -26 -48 0 0 0 0 0 0 0 0
0 0 0 0 0 0 0 0 0 0 0 0 0 0 0 0 0 0 0 0 -25 -140 -187 -245 -289 -343 -426 -321 -199 -232 -260 -325 -344 -348 -379 -440 -449 -6 0 0 -9 0 0 0 0 0 0 0 0
0 0 0 0 0 0 0 0 0 0 0 0 0 0 0 0 0 0 0 0 0 -126 -155 -236 -281 -342 -413 -431 -227 -186 -189 -257 -297 -288 -319 -415 -415 -349 0 0 0 0 0 0 0 0 0 0 0
0 0 0 0 0 0 0 0 0 0 0 0 0 0 0 0 0 0 0 0 0 -32 -117 -173 -226 -300 -370 -300 -282 -195 -160 -155 -250 -312 -336 -403 -432 0 0 0 0 0 0 0 0 0 0 0 0
0 0 0 0 0 0 0 0 0 0 0 0 0 0 0 0 0 0 0 0 0 0 -50 -126 -193 -284 -337 -271 -248 -186 -146 -151 -208 -310 -382 -69 -453 -461 0 0 -385 -379 0 0 0 0 0 0 0
0 0 0 0 0 0 0 0 0 0 0 0 0 0 0 0 0 0 0 0 0 0 0 -59 -206 -245 -326 -325 -255 -233 -168 -154 -194 -284 -335 0 -215 -15 0 -438 0 0 0 0 0 0 0 0 0
0 0 0 0 0 0 0 0 0 0 0 0 0 0 0 0 0 0 0 0 0 0 0 0 -52 -249 -261 -322 -278 -247 -215 -185 -191 -263 -255 -119 0 -440 0 -380 0 0 0 0 0 0 0 0 -125
0 0 0 0 0 0 0 0 0 0 0 0 0 0 0 0 0 0 0 0 0 0 0 0 -7 -55 -161 -211 -214 -251 -223 -242 -229 -254 -259 -275 0 -380 -470 -316 -333 0 0 0 0 0 0 -155 -88
0 0 0 0 0 0 0 0 0 0 0 0 0 0 0 0 0 0 0 0 0 0 0 0 -12 -24 -33 -85 -95 -234 -236 -244 -275 -284 -259 -253 0 -282 -277 -276 -259 0 0 0 0 -166 -56 -46 -72
0 0 0 0 0 0 0 0 0 0 0 0 0 0 0 0 0 0 0 0 0 0 0 0 0 -25 -21 -45 -54 -187 -259 -276 -306 -318 -287 -255 0 -310 -199 -194 -266 0 0 -104 -85 -40 -43 -111 -139
0 0 0 0 0 0 0 0 0 0 0 0 0 0 0 0 0 0 0 0 0 0 0 0 0 0 -26 -18 -53 -45 -174 -264 -267 -274 -253 -201 -71 -208 -95 -181 -202 0 0 -260 -187 -54 -57 -67 -148
0 0 0 0 0 0 0 0 0 0 0 0 0 -9 0 0 0 0 0 0 0 0 0 0 0 0 0 -26 -29 -28 -31 -172 -160 -201 -202 -181 -237 -129 -103 -197 -32 0 -15 -60 -76 -54 -130 -141 -138
0 0 0 0 0 0 0 0 0 0 0 0 0 0 0 0 0 0 0 0 0 0 0 0 0 0 0 -39 -34 -22 -16 -25 -133 -114 -94 -137 -151 -109 -114 -198 0 0 -136 -87 -51 -104 -119 -104 -205
0 0 0 0 0 0 0 0 0 0 0 0 0 0 0 0 0 0 0 0 0 0 0 0 0 0 0 0 -18 -80 -60 -14 -33 -33 -33 -74 -123 -107 -124 -178 -274 -200 -65 -26 -63 -76 -57 -122 -228
0 0 0 0 0 0 0 0 0 -60 0 0 0 0 0 0 0 0 0 0 0 0 0 -112 -120 0 0 0 -72 -79 0 -107 -7 -44 -44 -33 -47 -109 -131 -164 -215 -100 -35 -28 -53 -54 -50 -85 -262
0 0 0 0 0 0 0 0 0 -71 0 0 0 0 0 0 0 0 0 0 0 0 0 -191 -69 0 0 0 -22 -19 -16 -66 -45 -25 -38 -28 -62 -115 -137 -182 -152 -38 -40 -33 -48 -38 -32 -97 -146
0 0 0 0 0 0 0 -17 0 -53 0 0 0 0 0 0 0 0 0 0 0 0 0 0 -241 -144 0 0 -3 -31 -23 -12 -56 -37 -21 -21 -46 -115 -126 -186 -60 -33 -28 -36 -38 -67 -51 -74 -167
0 0 0 0 0 -11 0 0 0 -60 0 0 0 0 0 0 0 0 0 0 0 0 0 0 0 -193 -58 0 -221 -35 -34 -23 -24 -55 -27 -26 -76 -139 -137 -179 -20 -26 -34 -28 -80 -173 0 0 0
0 0 0 0 0 0 0 0 -12 -21 0 0 0 0 0 0 0 0 0 0 0 0 0 0 0 -197 -186 0 -149 -28 -34 -43 -21 -48 -42 -28 -76 -160 -165 -177 -40 -26 -61 -170 -298 -20 0 0 0
0 -18 -14 -2 0 0 0 -19 -25 -71 -42 0 0 0 0 0 0 0 0 0 0 0 0 0 0 0 -274 0 -174 -51 -30 -29 -29 -41 -55 -53 -90 -186 -167 -74 -33 -81 -232 -28 0 0 0 0 0
0 -4 -21 0 0 0 0 -30 -43 0 0 0 0 0 0 0 0 0 0 0 0 0 0 0 0 0 0 0 -94 -68 -46 -24 -27 -31 -51 -42 -70 -145 -117 -49 -100 -265 0 0 0 0 0 0 0
-14 -23 -9 -7 0 0 0 0 -22 -23 0 0 0 0 0 0 0 0 0 0 0 0 -126 -139 0 0 0 -128 -57 -66 -61 -51 -29 -28 -36 -23 -50 -69 -60 -143 -219 0 0 0 0 0 0 0 0
-16 -8 -3 -10 -0 0 0 0 -18 -14 0 0 0 0 0 0 0 0 0 0 0 0 -188 -47 -130 -141 -71 -120 -57 -58 -45 -57 -32 -34 -14 -18 -47 -70 -178 -265 0 0 0 0 0 0 0 0 0
0 0 -12 0 0 -48 -0 0 -34 -22 -22 0 0 0 0 0 0 0 0 0 -10 0 -236 -92 -130 -124 -89 -80 -48 -29 -25 -48 -48 -38 -17 -18 -82 -212 -1 0 0 0 0 0 0 0 0 0 0
Wind_Speed
21 21 21 19 17 16 19 19 28 30 26 19 15 13 14 16 16 13 15 14 13 12 10 10 13 13 12 12 12 14 13 12 11 11 12 13 12 10 10 11 11 12 13 14 15 16 18 18 19
20 20 13 18 15 16 20 25 28 28 16 19 16 14 15 14 14 14 14 10 11 10 10 7 8 9 11 10 11 12 10 10 9 9 8 9 10 11 9 10 10 10 11 12 13 14 15 16 17
19 15 15 15 16 15 17 22 28 17 17 19 20 20 16 15 16 14 12 7 8 8 7 5 6 6 7 9 8 10 9 8 7 7 6 6 8 8 9 8 8 8 9 10 11 13 14 16 17
15 14 17 20 25 27 33 34 30 23 19 19 18 18 16 13 16 11 13 7 6 5 6 3 3 3 3 5 8 7 6 4 5 6 6 5 5 6 6 7 6 6 7 9 10 12 14 16 17
13 16 18 20 26 29 31 33 25 20 19 21 20 19 15 13 13 12 12 9 5 5 5 3 1 1 1 4 6 8 6 4 5 6 5 4 4 5 5 6 6 6 6 8 9 11 13 15 16
16 15 20 23 29 30 33 23 18 20 21 21 23 21 16 10 14 16 19 15 5 3 3 3 1 2 3 2 4 8 8 5 5 5 5 4 2 2 3 4 5 5 6 8 9 10 12 14 15
13 19 23 29 33 33 28 21 20 20 22 21 22 20 13 13 16 18 22 22 8 4 3 4 3 4 5 5 4 5 7 7 6 6 6 5 3 1 1 2 3 4 5 7 9 11 12 13 12
11 20 28 30 29 28 25 22 20 21 25 27 21 18 16 16 26 25 25 26 17 9 6 4 4 4 7 9 7 6 7 8 7 7 6 5 4 3 2 1 2 3 5 6 8 10 12 12 10
17 20 21 21 26 25 27 25 25 24 21 23 24 26 29 31 29 29 28 28 26 7 7 7 7 8 8 12 11 8 8 9 9 8 7 6 6 6 5 3 2 3 4 6 7 8 10 10 9
11 15 16 24 24 26 28 28 30 29 31 31 31 33 29 32 30 30 29 24 31 13 13 13 11 11 11 13 13 12 10 11 10 10 9 8 7 7 7 6 3 4 5 6 6 7 7 8 9
14 15 24 30 26 26 29 30 29 31 32 32 33 31 32 33 35 34 33 31 28 29 16 15 15 13 11 14 15 15 14 13 12 12 12 10 9 8 8 8 8 7 7 8 7 6 6 7 7
15 20 27 31 31 28 30 31 30 28 28 27 28 30 31 33 34 34 37 37 36 35 26 18 16 16 15 14 16 17 17 16 15 14 15 13 11 10 9 8 7 7 8 6 5 5 6 7 6
23 26 31 32 33 32 34 32 31 28 27 27 26 25 26 27 28 29 33 36 39 39 31 24 21 21 18 17 16 18 18 17 16 15 15 15 14 13 10 9 8 7 7 5 4 4 7 8 11
28 32 36 34 33 30 25 23 21 25 27 27 24 23 21 22 23 27 30 33 34 41 41 28 24 22 22 22 18 19 20 19 18 18 17 16 15 15 12 11 9 7 5 5 3 3 4 5 13
28 31 34 21 15 16 18 19 20 23 20 23 17 19 19 20 21 19 23 30 31 33 41 32 28 25 28 27 22 20 20 20 19 19 20 18 16 14 13 12 10 9 8 5 7 10 7 9 10
20 20 24 19 32 15 19 25 32 33 22 22 18 17 18 16 17 14 12 13 15 22 32 32 28 29 28 31 29 25 22 23 21 20 21 20 19 16 14 12 13 11 10 8 7 9 10 10 13
22 25 32 26 32 32 28 33 31 31 30 28 25 23 18 18 15 15 15 12 12 16 18 31 30 34 33 32 35 30 29 24 24 23 22 20 18 18 14 15 15 15 16 13 12 12 13 13 11
30 32 33 34 32 32 32 34 38 36 34 33 36 33 24 24 25 29 25 19 16 19 18 19 31 32 35 36 37 39 33 29 27 26 24 21 20 19 15 15 14 14 14 11 11 9 11 13 13
28 31 31 27 29 33 36 40 37 35 34 26 20 24 28 31 33 33 32 26 25 26 24 21 18 27 32 37 39 42 41 32 32 32 28 22 20 18 17 16 15 13 12 11 9 9 12 16 15
26 30 31 29 36 37 40 37 40 43 14 20 23 28 32 35 37 38 38 36 32 27 27 26 22 21 27 37 39 39 46 40 37 34 30 25 22 19 17 17 17 13 11 10 9 10 13 16 16
27 27 32 35 38 34 36 35 33 20 20 22 27 32 34 37 40 43 44 43 42 38 35 32 27 23 26 32 36 39 43 48 52 46 37 31 24 20 18 17 17 14 13 10 9 8 12 13 18
27 30 32 32 37 34 33 36 36 21 25 26 30 33 38 43 49 50 51 50 48 46 43 41 30 28 27 28 36 41 42 45 51 48 43 43 27 21 18 17 15 13 12 10 6 8 14 13 14
26 29 33 32 38 35 28 23 26 24 27 31 34 39 44 49 52 53 51 48 38 40 41 42 38 29 30 30 30 39 43 42 45 40 33 29 20 19 18 17 16 13 12 8 7 9 10 12 12
29 37 34 37 28 22 20 27 25 25 29 35 39 45 51 53 56 53 48 43 45 44 45 43 43 34 30 30 32 33 43 43 45 39 36 29 26 21 19 17 17 15 12 8 5 7 7 9 10
32 33 30 27 26 25 36 28 20 25 31 35 43 49 52 53 53 51 49 46 45 49 50 46 43 41 35 31 32 34 40 45 45 40 37 33 29 25 20 18 16 13 9 6 5 4 7 10 11
31 23 26 28 31 33 30 18 21 26 30 39 44 51 53 52 50 47 46 46 46 48 52 49 44 43 36 37 35 36 38 46 47 41 37 35 32 26 20 19 16 11 9 6 2 3 6 8 10
24 27 20 22 24 26 21 22 21 33 40 44 50 53 56 52 52 50 48 43 43 46 49 33 36 38 39 41 38 37 40 45 48 44 39 37 30 24 20 18 16 12 9 6 2 3 5 7 11
19 17 20 24 27 28 25 33 29 38 41 47 52 56 53 53 50 49 48 46 46 48 30 15 19 21 42 42 37 37 40 45 48 45 41 38 32 26 21 18 16 12 8 6 3 2 4 6 10
22 20 18 18 21 21 32 32 28 38 43 48 50 51 49 48 48 50 49 46 45 42 35 25 22 31 47 40 29 38 41 45 48 46 42 36 33 28 23 20 16 12 8 5 2 2 4 7 10
24 26 24 23 19 11 6 31 23 38 44 43 47 50 47 46 48 40 44 42 41 31 37 31 24 22 26 30 30 37 40 42 48 46 44 35 32 28 24 20 16 12 8 6 3 2 5 8 10
Wind_Direction
273 267 275 295 305 305 297 295 241 263 307 323 333 343 360 342 323 327 2 31 59 75 85 86 96 100 103 106 105 103 101 98 92 89 88 86 80 64 58 59 61 62 62 59 52 50 46 37 30
285 287 331 296 309 304 292 260 280 293 314 315 325 338 343 337 354 338 338 32 55 69 85 88 89 100 109 108 110 110 106 104 102 96 92 86 82 79 64 59 58 55 52 50 46 37 30 25 18
293 322 309 308 303 300 302 284 289 330 327 323 311 312 326 322 325 332 348 39 45 54 59 98 98 99 110 119 120 120 117 113 114 111 102 91 84 75 73 54 48 48 45 35 32 28 25 16 18
319 319 308 293 281 277 260 270 294 306 324 332 328 316 322 339 331 343 339 24 14 44 38 85 116 99 116 126 132 136 134 136 133 127 122 107 88 74 62 62 49 33 32 34 21 17 20 23 16
328 312 299 298 286 274 258 277 298 304 313 319 324 317 325 349 2 358 354 357 341 7 30 38 190 210 144 138 142 148 157 176 152 139 137 127 102 83 62 56 55 43 17 2 6 16 18 15 22
312 317 298 291 275 281 291 302 315 310 311 312 322 317 321 355 347 335 336 338 358 323 352 24 180 222 258 241 172 158 164 187 188 169 157 152 138 89 69 59 54 34 12 358 8 13 13 19 27
316 302 294 284 279 286 310 315 307 309 306 302 322 316 351 3 355 334 317 326 342 338 309 308 307 250 251 256 227 206 191 181 190 192 177 173 204 248 6 54 48 36 12 355 355 353 6 19 43
330 310 292 288 289 287 320 325 329 316 301 301 316 300 303 320 327 323 321 303 332 305 291 285 293 284 254 258 252 215 200 203 196 203 203 197 200 240 269 325 1 9 2 6 354 349 353 18 55
311 308 303 309 303 302 310 315 323 329 325 320 308 302 297 301 311 311 309 301 306 312 274 269 269 280 267 249 251 241 222 208 214 224 220 218 240 252 261 274 302 331 353 351 355 1 7 20 48
327 308 311 319 318 310 306 309 310 315 311 310 310 302 306 300 304 306 304 303 287 298 286 275 268 275 272 254 243 248 240 239 224 229 228 233 243 253 265 270 277 304 321 335 349 359 17 25 20
325 307 303 304 317 318 311 312 318 313 309 312 310 311 305 302 295 297 296 295 298 291 292 271 262 260 264 261 244 248 249 248 242 233 229 233 244 250 263 269 278 290 307 317 331 350 11 12 21
319 310 304 302 308 315 313 314 313 315 314 318 315 312 309 303 298 296 291 286 285 286 302 281 259 258 257 260 245 245 247 248 245 239 237 236 242 247 256 259 270 279 294 304 318 344 357 3 16
313 308 305 306 309 310 311 311 312 313 317 316 314 313 312 311 307 302 293 289 281 278 283 302 275 265 256 254 250 243 246 245 246 238 236 238 242 247 246 252 266 280 281 292 300 322 332 340 349
309 301 301 308 309 311 312 318 319 319 318 317 316 315 313 314 310 305 298 291 286 276 272 282 284 261 264 259 250 245 245 246 244 243 239 237 240 248 238 250 253 270 275 283 293 318 337 348 345
316 313 315 327 321 319 318 313 320 323 321 320 316 316 317 314 313 310 305 293 291 285 270 275 275 270 261 257 256 248 247 247 246 241 242 235 236 233 231 236 254 257 275 263 297 314 334 340 348
332 331 328 338 338 331 325 314 314 322 318 316 315 316 315 311 305 305 301 301 298 298 279 272 273 269 263 255 256 253 248 250 250 244 241 238 238 237 229 233 253 262 282 285 304 313 322 334 332
341 326 326 326 322 327 326 320 324 323 321 320 318 316 312 310 300 294 292 284 289 296 296 277 274 268 265 259 253 256 254 249 248 245 241 237 234 237 232 245 254 261 277 281 290 305 314 321 331
328 326 324 325 329 326 325 319 319 314 315 309 307 307 331 347 343 326 307 295 285 288 286 284 277 273 264 261 256 256 254 249 249 245 241 236 238 237 237 247 250 260 270 278 293 298 313 319 331
332 327 324 328 329 328 322 316 312 311 310 324 336 336 333 332 331 331 328 328 316 291 286 281 277 277 268 260 258 256 251 252 246 248 244 231 235 232 231 246 252 255 258 268 287 303 307 313 325
331 327 325 329 321 321 315 314 300 298 348 352 336 334 332 327 323 314 310 316 314 309 295 284 275 269 270 263 259 257 255 252 252 249 241 232 228 228 229 235 250 246 254 269 276 294 307 312 321
334 332 330 326 320 322 317 315 309 339 347 336 335 337 333 327 320 312 306 302 299 300 297 290 281 269 265 268 260 255 253 255 248 243 249 235 230 228 232 229 245 243 254 261 279 292 304 315 312
336 328 326 325 323 323 323 312 305 327 330 333 333 334 331 323 322 311 304 296 293 291 290 288 280 272 266 262 261 252 247 243 245 246 251 240 224 228 230 234 237 233 245 255 264 292 301 310 317
337 331 329 326 319 323 329 324 316 335 323 323 329 330 325 323 323 315 308 306 303 299 297 294 287 268 264 262 261 252 248 247 245 245 242 240 221 225 232 233 240 226 243 240 263 293 311 312 318
336 324 327 320 332 341 346 330 319 328 324 321 326 328 325 324 321 318 314 309 305 301 294 292 287 276 259 256 260 252 246 244 242 244 241 242 240 232 232 228 239 242 244 244 265 307 322 338 342
336 334 335 342 343 339 316 324 339 325 333 330 326 329 327 328 322 321 318 316 309 298 293 290 285 279 259 252 257 253 247 242 242 242 239 238 238 232 231 224 233 231 226 221 266 302 325 328 338
339 360 350 339 333 326 325 348 339 339 341 337 336 332 334 331 330 330 328 324 316 305 294 289 281 274 262 248 254 254 247 243 241 239 235 235 235 231 229 227 225 213 209 232 226 310 337 343 347
349 344 3 352 349 343 351 347 336 330 330 335 336 338 335 331 328 329 328 333 325 315 295 293 282 268 262 248 249 252 247 242 239 238 235 231 231 222 224 217 210 209 210 218 228 297 333 351 355
4 5 358 359 347 341 342 328 330 324 333 336 336 339 338 335 335 333 330 330 325 314 323 304 285 266 259 247 245 248 246 239 237 236 234 228 223 218 211 201 200 202 207 209 211 303 22 7 6
4 10 13 14 4 356 322 324 344 336 339 342 341 350 346 351 345 333 327 319 322 324 333 321 310 278 238 243 237 245 244 237 235 234 231 227 213 211 199 195 195 192 199 180 194 44 30 23 17
4 0 3 3 3 19 289 311 5 347 347 354 354 350 352 358 349 356 343 317 333 305 319 321 318 290 252 242 241 245 241 236 232 231 228 224 201 195 198 188 187 184 193 186 162 86 41 27 21